Regional Weather Roundup
Issued by NWS

Home | Current Version | Previous Version | Graphics & Text | Print | Product List | Glossary On
Versions: 1 2 3 4 5 6 7 8 9 10 11 12 13 14 15 16 17 18 19 20 21 22 23 24 25 26 27 28 29 30 31 32 33 34 35 36 37 38 39 40 41 42 43 44 45 46 47 48 49 50
000
ASUS43 KDMX 250206
RWRIA

WEATHER ROUNDUP FOR IOWA
NATIONAL WEATHER SERVICE DES MOINES IA
900 PM CDT SUN SEP 24 2017

NOTE: "FAIR" INDICATES FEW OR NO CLOUDS BELOW 12,000 FEET WITH NO
SIGNIFICANT WEATHER AND/OR OBSTRUCTIONS TO VISIBILITY.

* - THESE STATIONS ARE NOT NWS STATIONS...THUS NOT UNDER NWS
QUALITY CONTROL.  THEY ALSO DO NOT REPORT WEATHER SUCH
AS PRECIPITATION OR FOG.

IAZ001>003-012>014-020>022-031>034-043>046-250300-
   NORTHWEST IOWA

CITY           SKY/WX    TMP DP  RH WIND       PRES   REMARKS
CARROLL *      RAIN      72  72 100 W12       29.93R
CHEROKEE *     PTCLDY    65  64  96 NE5       29.95R
DENISON *      MOCLDY    68  66  94 NE5       29.93F
LE MARS *      CLOUDY    63  59  88 NW8       29.96R
ORANGE CITY *  CLOUDY    63  63 100 NW7       29.96R
SHELDON *      CLOUDY    63  61  94 N6        29.94F
SIOUX CITY     MOCLDY    61  59  93 NW10      29.96R
SPENCER        CLOUDY    66  64  93 NW5       29.95R
STORM LAKE *   CLOUDY    66  66 100 NE6       29.95R
$$

IAZ055>058-069>071-079>083-090>094-250300-
   SOUTHWEST IOWA

CITY           SKY/WX    TMP DP  RH WIND       PRES   REMARKS
ATLANTIC *     PTCLDY    70  68  94 CALM      29.91R
AUDUBON *      MOCLDY    70  66  88 CALM      29.93R
CLARINDA *     PTCLDY    72  64  78 CALM      29.93R
COUNCIL BLFS * MOCLDY    72  72 100 N8        29.91R
CRESTON *      CLEAR     75  64  69 S7        29.95R
HARLAN  *      MOCLDY    70  70 100 CALM      29.94S
LAMONI         CLEAR     78  64  61 SE7       29.93R HX  80
RED OAK *      PTCLDY    70  66  88 CALM      29.90S
SHENANDOAH *   PTCLDY    73  66  78 SE6       29.90R
$$

IAZ047>049-059>061-072>074-084-250300-
   CENTRAL IOWA

CITY           SKY/WX    TMP DP  RH WIND       PRES   REMARKS
AMES           CLEAR     71  64  78 S5        29.92R
ANKENY *       CLEAR     75  63  64 CALM      29.93R
BOONE *        CLEAR     75  63  64 SE7       29.92S
CHARITON *     CLEAR     75  64  69 SE6       29.94R
DES MOINES     PTCLDY    80  63  55 SE7       29.91R HX  81
GRINNELL*      CLEAR     75  63  65 SE5       29.95S
KNOXVILLE *    CLEAR     77  64  65 SE6       29.92S
MARSHALLTOWN   CLEAR     74  64  71 SE5       29.93R
NEWTON *       CLEAR     73  63  68 SE6       29.93S
PELLA *        CLEAR     77  63  61 SE5       29.94S
PERRY *        MOCLDY    78  61  55 S7        29.92R
$$

IAZ004>006-015-016-023>025-035-036-250300-
   NORTH CENTRAL IOWA

CITY           SKY/WX    TMP DP  RH WIND       PRES   REMARKS
ALGONA *       LGT RAIN  70  68  94 SW14G24   29.95R
CLARION *      CLOUDY    75  63  64 NW7       29.93R
ESTHERVILLE    CLOUDY    68  68 100 W5        29.94R
FORT DODGE *   LGT RAIN  72  65  78 NW5       29.94R
MASON CITY     CLEAR     71  61  70 S8        29.94R
FOREST CITY *  LGT RAIN  75  63  64 W9        29.95R
WEBSTER CITY * CLOUDY    77  63  61 CALM      29.90S
IOWA FALLS *     N/A     75  63  65 S6        29.94R
$$

IAZ007>011-017>019-026>030-037>042-050>054-066-250300-
   NORTHEAST IOWA

CITY           SKY/WX    TMP DP  RH WIND       PRES   REMARKS
CEDAR RAPIDS   CLEAR     75  63  66 SE6       29.95R
CHARLES CITY * CLEAR     75  63  64 S7        29.94R
CLINTON *      CLEAR    N/A N/A N/A SE7       29.98R
DECORAH *      CLEAR     75  64  69 SE7       29.95R
DUBUQUE        CLEAR     71  63  75 CALM      29.99R
MONTICELLO *   CLEAR     73  63  68 SE5       29.96S
OELWEIN *      CLEAR     73  63  68 SE7       29.96R
WATERLOO       CLEAR     76  62  62 S7        29.93R
$$

IAZ064-065-067-068-078-250300-
   EAST CENTRAL IOWA

CITY           SKY/WX    TMP DP  RH WIND       PRES   REMARKS
DAVENPORT      CLEAR     74  64  71 SE6       29.99R
IOWA CITY      CLEAR     77  65  66 SE3       29.96S
MT. PLEASANT * CLEAR     73  62  69 SE6       29.96R
MUSCATINE *    CLEAR     73  66  78 CALM      29.96R
QUAD CITIES    CLEAR     76  63  64 SE6       29.96S
$$

IAZ062-063-075>077-085>089-095>099-250300-
   SOUTHEAST IOWA

CITY           SKY/WX    TMP DP  RH WIND       PRES   REMARKS
BURLINGTON     CLEAR     78  62  57 SE5       29.96R HX  80
FAIRFIELD *    CLEAR     75  61  60 SE6       29.95R
FORT MADISON * CLEAR     79  63  57 SE5       29.97R HX  80
KEOKUK *       CLEAR     79  61  53 SE3       29.95R HX  80
OSKALOOSA *      N/A     75  63  65 SE7       29.94S
OTTUMWA        CLEAR     74  63  68 SE5       29.94R
WASHINGTON *   CLEAR     73  64  73 SE6       29.96S
$$

ABBREVIATIONS USED IN REMARKS
   TC - TEMPERATURES IN CELSIUS
  WCI - WIND CHILL INDEX
   HX - HEAT INDEX
  VSB - VISIBILITY
$$





USA.gov is the U.S. government's official web portal to all federal, state and local government web resources and services.